Regional Weather Roundup
Issued by NWS Newport/Morehead, NC

Current Version | Previous Version | Graphics & Text | Print | Product List | Glossary Off
Versions: 1 2 3 4 5 6 7 8 9 10 11 12 13 14 15 16 17 18 19 20 21 22 23 24 25 26 27 28 29 30 31 32 33 34 35 36 37 38 39 40 41 42 43 44 45 46 47 48 49 50

665
ASUS42 KMHX 270513
RWRMHX
WEATHER ROUNDUP FOR EASTERN NORTH CAROLINA
NATIONAL WEATHER SERVICE NEWPORT/MOREHEAD CITY NC
100 AM EDT MON MAR 27 2017

NOTE: "FAIR" INDICATES FEW OR NO CLOUDS BELOW 12,000 FEET
WITH NO SIGNIFICANT WEATHER AND/OR OBSTRUCTIONS TO VISIBILITY

NCZ015>017-031-032-045>047-102-103-270600-
NORTH COAST

CITY           SKY/WX    TMP DP  RH WIND       PRES   REMARKS
EDENTON        CLEAR     61  55  81 CALM      30.19F
ELIZABETH CITY CLEAR     57  54  89 S3        30.19F
KITTY HAWK     NOT AVBL
MANTEO         CLEAR     61  52  72 S8        30.19F

$$

NCZ045>047-081-094-103-104-270600-
CENTRAL COAST

CITY           SKY/WX    TMP DP  RH WIND       PRES   REMARKS
FRISCO         PTCLDY    66  54  65 S10       30.19F

$$

NCZ095-097-098-100-101-270600-
SOUTHERN COAST

CITY           SKY/WX    TMP DP  RH WIND       PRES   REMARKS
BEAUFORT       CLEAR     64  57  78 SE6       30.18F
CEDAR ISLAND   NOT AVBL
JACKSONVILLE   NOT AVBL
PINEY ISLAND   CLEAR    N/A N/A N/A S5        30.19F
WILMINGTON     CLEAR     55  55 100 CALM      30.17F


$$

NCZ011>013-027>030-043-044-078>080-089-090>093-098-270600-
COASTAL PLAIN

CITY           SKY/WX    TMP DP  RH WIND       PRES   REMARKS
AHOSKIE          N/A     58  54  86 S3        30.18F
CLINTON        PTCLDY    62  57  83 CALM      30.17F
ELIZABETHTOWN  CLEAR     59  56  89 SE3       30.16F
GOLDSBORO      CLEAR     60  58  92 SE6       30.15F
GREENVILLE     CLOUDY    59  55  88 S5        30.19F
HAVELOCK       CLEAR     57  54  89 VRB3      30.20F
KENANSVILLE    PTCLDY    52  50  93 CALM      30.17F
KINSTON        MOCLDY    59  55  85 CALM      30.18F
NEW BERN       PTCLDY    54  53  97 CALM      30.19F
RICHLANDS      CLEAR     52  50  93 CALM      30.18F
ROCKY MOUNT    CLEAR     61  54  77 SE5       30.16F
WASHINGTON     PTCLDY    60  55  84 SE3       30.19S
WHITEVILLE     PTCLDY    60  55  85 CALM      30.16F

$$

AMZ130-135-150-152-154-156-158-170-250-252-270-ANZ085-086-088-633-658-670-270600-
MARINE OBSERVATIONS

STATION/POSITION TIME  TEMP    WIND        PRES    WAVE   SWELL
                       AIR SEA DIR/SP/G            HT/PER HT/PER
                 (UTC) (F)     (DEG/KT/KT) (MB)    (FT/S) (FT/S)
CHESAPEAKE LIGHT NOT AVBL
64 E VA BEACH    0450   56 51  160/ 10/ 10 1022.4    4/ 7   3/ 7
DUCK             0442   54 48  150/ 13/ 14 1021.6
2 E DUCK         0500      50                N/A     3/ 7   2/18
OREGON INLET     0442   56 58  140/  5/  5 1022.6
13E OREGON INLT  0448      51                N/A     3/ 9   3/ 9
HATTERAS CG      0442   67 60  170/  9/ 12 1022.2
DIAMOND BUOY     0450   69 76  150/ 14/ 17 1022.8    3/ 9   2/ 9
CAPE LOOKOUT     0500   66     150/ 10/ 11 1021.8
BEAUFORT LAB     0442   64 57  150/  5/  7 1021.2
30 SE NEW RVR IN 0408   66     140/  8/ 10 1022.3
30 SE NEW RVR IN 0443      64                N/A     4/ 9   2/11
27 SE WRIGHTSVLE 0408   67 62  160/ 12/ 16 1021.1
5 SE WRIGHTSVLE  0408   63 60  190/  6/ 10 1021.9
225 S CAPE HAT   0450   68 72   90/ 12/ 16 1022.2    5/ 7   3/ 7
41 SE CHARLESTON 0450   72 73  150/ 12/ 16 1020.7    5/ 9   3/ 9

$$




USA.gov is the U.S. government's official web portal to all federal, state and local government web resources and services.